Naples, Italy

10:31 PM CEST on July 27, 2016 (GMT +0200)
Calata San Marco | | Change Station

Elev 0 ft 40.84 °N, 14.25 °E | Updated 4 minutes ago

Clear
Clear
81.3 °F
Feels Like 86 °F
N
1.2
Wind Variable Wind from NNE
Gusts 3.7 mph

Today
High -- | Low -- °F
--% Chance of Precip.
Yesterday
High -- | Low -- °F
Precip. -- in
Pressure 29.98 in
Visibility -9999.0 miles
Clouds
Heat Index 86 °F
Dew Point 73 °F
Humidity 75%
Rainfall Not available.
Snow Depth Not available.
5:54 AM 8:23 PM
Last Quarter, 40% visible
METAR LIRN 272020Z VRB01KT CAVOK 26/22 Q1015 NOSIG
Pressure 29.98 in
Visibility -9999.0 miles
Clouds
Heat Index 86 °F
Dew Point 73 °F
Humidity 75%
Rainfall Not available.
Snow Depth Not available.
5:54 AM 8:23 PM
Last Quarter, 40% visible
METAR LIRN 272020Z VRB01KT CAVOK 26/22 Q1015 NOSIG

10-Day Weather Forecast

×

Almanac

Astronomy

Jul. 27, 2016 Rise Set
Actual Time
Civil Twilight
Nautical Twilight
Astronomical Twilight
Moon
Length of Visible Light
Length of Day
Tomorrow will be .
, % of the Moon is Illuminated

Today's Extremes

Country Highs Country Lows

Community

WunderPhotos

Upload Photos

1,927,933 photos uploaded!

WunderBlog® & News

Nearby

Air Quality

  Air Quality AQ Index Pollutant
Not available.

Snow Depth

Station Depth Elevation

Earthquake Activity

City Distance Mag. Time & Date
Minimum magnitude displayed is 2.5.

Coastal Water Temperatures

Place Temperature

Stations

Nearby Weather Stations

Station Location Temp. Windchill Dew Point Humidity Wind Precip. Elev Updated Type